STARLINK-5257 (55316 NORAD) Tracking and Keplerian Element Data

This shows tracking and keplerian element data for the satellite.

Feedback or suggestion? Click here.




ElementValue
Catalog55316
NameSTARLINK-5257
Epoch Orbit1738
Epoch Day127.07853351
Epoch Year2023
RAAN126.7285
Inclination69.9978
Eccentricity0.0002522
Argument of Perigee269.5869
Mean Anonmoly90.5038
Mean Motion15.69936078
Decay Rate-3.851E-05
L11 55316U 23010AZ 23127.07853351 -.00003851 00000+0 -30269-4 0 9995
L22 55316 69.9978 126.7285 0002522 269.5869 90.5038 15.69936078 17385



Live tracking and technical data element details for STARLINK-5257 (NORAD 55316). STARLINK-5257 can be tracked NOW for your location showing map with azimuth and elevation plus other details from your city location.







IsCatalogInMostPopularTable: catalog: 55316, numindb: -1

Insert: records affected: 1


GetName: 55316 STARLINK-5257

Hit Count: inserted at: Mon, 05 Jun 2023 20:24:48 GMT